Hourly Weather Kaiteriteri

Today, 9 March, Tuesday

Time Temperature Precipitation Wind Pressure Humidity
00:00 +11°C° 0 mm 1 mps 737 mmHg 85%
01:00 +10°C° 0 mm 1 mps 737 mmHg 85%
02:00 +9°C° 0 mm 2 mps 737 mmHg 85%
03:00 +9°C° 0 mm 2 mps 737 mmHg 85%
04:00 +9°C° 0 mm 2 mps 737 mmHg 85%
05:00 +9°C° 0 mm 2 mps 738 mmHg 85%
06:00 +9°C° 0 mm 2 mps 738 mmHg 85%
07:00 +10°C° 0 mm 2 mps 738 mmHg 77%
08:00 +13°C° 0 mm 1 mps 738 mmHg 70%
09:00 +15°C° 0 mm 1 mps 738 mmHg 63%
10:00 +16°C° 0 mm 1 mps 738 mmHg 62%
11:00 +17°C° 0 mm 2 mps 739 mmHg 60%
12:00 +19°C° 0 mm 1 mps 739 mmHg 58%
13:00 +19°C° 0 mm 2 mps 738 mmHg 60%
14:00 +19°C° 0 mm 2 mps 738 mmHg 62%
15:00 +19°C° 0 mm 3 mps 738 mmHg 64%
16:00 +18°C° 0 mm 2 mps 737 mmHg 68%
17:00 +18°C° 0 mm 2 mps 737 mmHg 72%
18:00 +18°C° 0 mm 1 mps 737 mmHg 76%
19:00 +16°C° 0 mm 2 mps 737 mmHg 80%
20:00 +15°C° 0 mm 2 mps 737 mmHg 84%
21:00 +13°C° 0 mm 2 mps 738 mmHg 89%
22:00 +13°C° 0 mm 2 mps 737 mmHg 89%
23:00 +12°C° 0 mm 2 mps 737 mmHg 89%

Tomorrow, 10 March, Wednesday

Time Temperature Precipitation Wind Pressure Humidity
00:00 +11°C° 0 mm 3 mps 737 mmHg 90%
01:00 +11°C° 0 mm 3 mps 736 mmHg 90%
02:00 +10°C° 0 mm 2 mps 736 mmHg 90%
03:00 +10°C° 0 mm 2 mps 735 mmHg 91%
04:00 +10°C° 0 mm 2 mps 735 mmHg 89%
05:00 +10°C° 0 mm 2 mps 735 mmHg 87%
06:00 +10°C° 0 mm 2 mps 735 mmHg 85%
07:00 +12°C° 0 mm 1 mps 735 mmHg 83%
08:00 +13°C° 0 mm 1 mps 735 mmHg 81%
09:00 +14°C° 0 mm 1 mps 734 mmHg 80%
10:00 +14°C° 0.7 mm 2 mps 734 mmHg 85%
11:00 +14°C° 0.7 mm 2 mps 734 mmHg 91%
12:00 +13°C° 0.7 mm 3 mps 733 mmHg 96%
13:00 +14°C° 0.7 mm 3 mps 733 mmHg 96%
14:00 +14°C° 0.7 mm 3 mps 732 mmHg 95%
15:00 +16°C° 0.7 mm 3 mps 732 mmHg 95%
16:00 +16°C° 0.2 mm 2 mps 732 mmHg 94%
17:00 +17°C° 0.2 mm 2 mps 732 mmHg 93%
18:00 +17°C° 0.2 mm 2 mps 732 mmHg 92%
19:00 +16°C° 0 mm 2 mps 733 mmHg 93%
20:00 +15°C° 0 mm 2 mps 733 mmHg 93%
21:00 +15°C° 0 mm 2 mps 733 mmHg 94%
22:00 +14°C° 0 mm 2 mps 734 mmHg 94%
23:00 +14°C° 0 mm 2 mps 734 mmHg 93%

Day after tomorrow, 11 March, Thursday

Time Temperature Precipitation Wind Pressure Humidity
00:00 +14°C° 0 mm 2 mps 735 mmHg 93%
01:00 +13°C° 0.1 mm 2 mps 735 mmHg 93%
02:00 +13°C° 0.1 mm 1 mps 735 mmHg 93%
03:00 +13°C° 0.1 mm 1 mps 735 mmHg 93%
04:00 +13°C° 0.1 mm 1 mps 736 mmHg 93%
05:00 +13°C° 0.1 mm 2 mps 736 mmHg 93%
06:00 +13°C° 0.1 mm 2 mps 737 mmHg 93%
07:00 +14°C° 0.2 mm 2 mps 737 mmHg 91%
08:00 +15°C° 0.2 mm 2 mps 738 mmHg 90%
09:00 +16°C° 0.2 mm 1 mps 739 mmHg 88%
10:00 +16°C° 0.5 mm 1 mps 739 mmHg 88%
11:00 +16°C° 0.5 mm 1 mps 739 mmHg 89%
12:00 +17°C° 0.5 mm 2 mps 740 mmHg 89%
13:00 +17°C° 0.6 mm 2 mps 740 mmHg 87%
14:00 +17°C° 0.6 mm 2 mps 740 mmHg 84%
15:00 +18°C° 0.6 mm 2 mps 740 mmHg 81%
16:00 +17°C° 0.3 mm 2 mps 741 mmHg 84%
17:00 +17°C° 0.3 mm 2 mps 741 mmHg 87%
18:00 +16°C° 0.3 mm 2 mps 741 mmHg 89%
19:00 +15°C° 0 mm 2 mps 742 mmHg 90%
20:00 +15°C° 0 mm 2 mps 743 mmHg 91%
21:00 +14°C° 0 mm 2 mps 743 mmHg 92%
22:00 +14°C° 0 mm 2 mps 743 mmHg 91%
23:00 +14°C° 0 mm 2 mps 743 mmHg 91%

12 March, Friday

Time Temperature Precipitation Wind Pressure Humidity
00:00 +13°C° 0 mm 1 mps 743 mmHg 90%
01:00 +13°C° 0 mm 1 mps 743 mmHg 90%
02:00 +13°C° 0 mm 1 mps 743 mmHg 90%
03:00 +12°C° 0 mm 1 mps 743 mmHg 91%
04:00 +12°C° 0 mm 1 mps 744 mmHg 91%
05:00 +12°C° 0 mm 1 mps 744 mmHg 91%
06:00 +11°C° 0 mm 1 mps 744 mmHg 91%
07:00 +12°C° 0 mm 1 mps 745 mmHg 88%
08:00 +13°C° 0 mm 1 mps 745 mmHg 84%
09:00 +15°C° 0 mm 1 mps 745 mmHg 81%
10:00 +16°C° 0 mm 1 mps 745 mmHg 77%
11:00 +16°C° 0 mm 2 mps 745 mmHg 72%
12:00 +17°C° 0 mm 2 mps 745 mmHg 68%
13:00 +17°C° 0 mm 2 mps 745 mmHg 69%
14:00 +17°C° 0 mm 2 mps 745 mmHg 70%
15:00 +17°C° 0 mm 3 mps 745 mmHg 71%
16:00 +17°C° 0 mm 3 mps 745 mmHg 74%
17:00 +16°C° 0 mm 2 mps 745 mmHg 77%
18:00 +16°C° 0 mm 2 mps 745 mmHg 79%
19:00 +15°C° 0 mm 2 mps 745 mmHg 83%
20:00 +14°C° 0 mm 1 mps 746 mmHg 86%
21:00 +13°C° 0 mm 1 mps 746 mmHg 90%
22:00 +13°C° 0 mm 1 mps 746 mmHg 90%
23:00 +13°C° 0 mm 1 mps 746 mmHg 89%

13 March, Saturday

Time Temperature Precipitation Wind Pressure Humidity
00:00 +13°C° 0 mm 1 mps 747 mmHg 89%
01:00 +12°C° 0 mm 1 mps 746 mmHg 90%
02:00 +12°C° 0 mm 1 mps 746 mmHg 91%
03:00 +11°C° 0 mm 1 mps 746 mmHg 93%
04:00 +11°C° 0 mm 1 mps 746 mmHg 93%
05:00 +11°C° 0 mm 1 mps 746 mmHg 93%
06:00 +11°C° 0 mm 1 mps 746 mmHg 93%
07:00 +13°C° 0 mm 1 mps 746 mmHg 86%
08:00 +14°C° 0 mm 1 mps 746 mmHg 78%
09:00 +16°C° 0 mm 1 mps 746 mmHg 71%
10:00 +18°C° 0 mm 1 mps 746 mmHg 67%
11:00 +18°C° 0 mm 2 mps 746 mmHg 62%
12:00 +19°C° 0 mm 2 mps 746 mmHg 58%
13:00 +19°C° 0 mm 2 mps 746 mmHg 58%
14:00 +19°C° 0 mm 3 mps 745 mmHg 59%
15:00 +19°C° 0 mm 3 mps 745 mmHg 59%
16:00 +18°C° 0 mm 2 mps 745 mmHg 64%
17:00 +17°C° 0 mm 2 mps 744 mmHg 69%
18:00 +16°C° 0 mm 1 mps 744 mmHg 73%
19:00 +15°C° 0 mm 1 mps 744 mmHg 79%
20:00 +13°C° 0 mm 1 mps 744 mmHg 85%
21:00 +12°C° 0 mm 1 mps 745 mmHg 90%
22:00 +12°C° 0 mm 1 mps 745 mmHg 90%
23:00 +11°C° 0 mm 1 mps 744 mmHg 90%

14 March, Sunday

Time Temperature Precipitation Wind Pressure Humidity
00:00 +11°C° 0 mm 1 mps 744 mmHg 90%
01:00 +11°C° 0 mm 1 mps 744 mmHg 87%
02:00 +10°C° 0 mm 1 mps 743 mmHg 84%
03:00 +10°C° 0 mm 1 mps 743 mmHg 82%
04:00 +10°C° 0 mm 1 mps 743 mmHg 78%
05:00 +10°C° 0 mm 1 mps 743 mmHg 74%
06:00 +9°C° 0 mm 1 mps 743 mmHg 70%
07:00 +12°C° 0 mm 1 mps 743 mmHg 64%
08:00 +14°C° 0 mm 1 mps 743 mmHg 59%
09:00 +16°C° 0 mm 1 mps 743 mmHg 54%
10:00 +18°C° 0 mm 1 mps 743 mmHg 53%
11:00 +18°C° 0 mm 2 mps 743 mmHg 52%
12:00 +19°C° 0 mm 2 mps 743 mmHg 51%
13:00 +19°C° 0 mm 3 mps 742 mmHg 52%
14:00 +20°C° 0 mm 3 mps 742 mmHg 52%
15:00 +20°C° 0 mm 4 mps 742 mmHg 52%
16:00 +19°C° 0 mm 4 mps 741 mmHg 57%
17:00 +19°C° 0 mm 3 mps 741 mmHg 62%
18:00 +18°C° 0 mm 3 mps 741 mmHg 67%
19:00 +16°C° 0 mm 3 mps 741 mmHg 71%
20:00 +14°C° 0 mm 3 mps 742 mmHg 75%
21:00 +12°C° 0 mm 3 mps 742 mmHg 79%
22:00 +12°C° 0 mm 3 mps 742 mmHg 77%
23:00 +13°C° 0 mm 2 mps 742 mmHg 75%
Show more

We Need Your Consent

Meteoprog and our Service Providers may store and access personal data such as cookies, device identifiers or other similar technologies on your device and process such data to personalise content and ads, as well as provide social media features and to analyse the traffic.

  • Store and/or access information on your device

    Cookies, device identifiers or other information can be stored or accessed on your device for the purposes indicated above.

  • Personalised ads and content, ad and content measurement, audience insights, and products development

    Ads and content can be personalised based on a profile. More data can be added to better personalise ads and content. Ad and content performance can be measured. Insights about the audience who saw the ads and content can be derived. Such data can be used to develop or improve user’s experience, systems and software.

By clicking ‘I Agree’ you will allow the use of indicated cookies, device identifiers, web beacons or other similar technologies. Your settings can be changed in the browser on your device.

For certain purposes, legitimate interests may be relied on, rather than consent. You can read more about this in our Privacy and Cookie Policy.